Location: Linz
(48.3300°N, 14.3000°E)
Time: 00:11:22
(UTC+01:00)

ISS - Pass Details

Date: 12 November 2017
Orbit: 402 x 407 km, 51.6° (Epoch: 19 November)

Event Time Altitude Azimuth Distance (km) Brightness Sun altitude
Exits shadow 04:20:03 19° 70° (ENE) 1,020 -1.1 -27.5°
Drops below altitude 10° 04:21:12 10° 78° (ENE) 1,457 -0.1 -27.3°
Sets 04:23:20 0° 85° (E) 2,316 1.3 -27.0°
